Weather History for Monticello, KY

Change the Weather History Date:

Wednesday, March 7, 2012

  Actual Average Record
Temperature  
Mean Temperature 57 °F -  
Max Temperature 66 °F 55 °F 79 °F (1983)
Min Temperature 48 °F 32 °F 15 °F (1960)
Degree Days  
Heating Degree Days 8    
Growing Degree Days 7 (Base 50)    
Moisture  
Dew Point 39 °F    
Average Humidity 48    
Maximum Humidity 64    
Minimum Humidity 35    
Precipitation  
Precipitation 0.00 in - - ()
Sea Level Pressure  
Sea Level Pressure 30.37 in    
Wind  
Wind Speed 14 mph (SSE)    
Max Wind Speed 21 mph    
Max Gust Speed -    
Visibility 10 miles    
Events      
Averages and records for this station are not official NWS values.
T = Trace of Precipitation, MM = Missing Value Source: NWS Daily Summary

Daily Weather History Graph

Daily Weather History Graph

Search for Another Location

Airport:

Trip Planner

Search our weather history database for the weather conditions in past years. The results will help you decide how hot, cold, wet, or windy it might be!

Date:

Astronomy

Mar. 07, 2012 Rise Set
Actual Time 6:01 AM CST 5:39 PM CST
Civil Twilight 5:35 AM CST 6:05 PM CST
Nautical Twilight 5:05 AM CST 6:35 PM CST
Astronomical Twilight 4:35 AM CST 7:05 PM CST
Moon 5:14 PM CST (3/7) 5:10 AM CST (3/7)
Length of Visible Light 12h 30m
Length of Day
11h 38m
Waxing Gibbous, 99% of the Moon is Illuminated
Mar 7
Waxing Gibbous
Mar 8
Full
Mar 14
Last Quarter
Mar 22
New
Mar 30
First Quarter

Hourly Weather History & Observations

Time (CST) Temp. Dew Point Humidity Pressure Visibility Wind Dir Wind Speed Gust Speed Precip Events Conditions
12:56 AM 50.9 °F 24.1 °F 35% 30.41 in 10.0 mi South 13.8 mph - N/A   Clear
1:56 AM 50.0 °F 24.1 °F 36% 30.41 in 10.0 mi SSE 9.2 mph - N/A   Clear
2:56 AM 48.9 °F 26.1 °F 41% 30.41 in 10.0 mi South 10.4 mph - N/A   Clear
3:56 AM 48.9 °F 27.1 °F 43% 30.41 in 10.0 mi SSE 10.4 mph - N/A   Clear
4:56 AM 50.0 °F 30.0 °F 46% 30.42 in 10.0 mi SSE 11.5 mph - N/A   Clear
5:56 AM 50.0 °F 32.9 °F 52% 30.43 in 10.0 mi SSE 10.4 mph - N/A   Clear
6:56 AM 52.0 °F 37.9 °F 59% 30.44 in 10.0 mi SSE 12.7 mph - N/A   Clear
7:56 AM 55.9 °F 41.0 °F 57% 30.45 in 10.0 mi SSE 20.7 mph - N/A   Clear
8:56 AM 59.9 °F 43.0 °F 54% 30.46 in 10.0 mi SSE 15.0 mph - N/A   Clear
9:56 AM 61.9 °F 45.0 °F 54% 30.45 in 10.0 mi South 17.3 mph - N/A   Partly Cloudy
10:56 AM 64.9 °F 43.9 °F 46% 30.44 in 10.0 mi SSE 20.7 mph - N/A   Mostly Cloudy
11:56 AM 66.9 °F 43.9 °F 43% 30.41 in 10.0 mi SSE 18.4 mph - N/A   Scattered Clouds
12:56 PM 66.9 °F 43.9 °F 43% 30.37 in 10.0 mi South 13.8 mph - N/A   Clear
1:56 PM 66.9 °F 43.9 °F 43% 30.35 in 10.0 mi South 19.6 mph - N/A   Partly Cloudy
2:56 PM 66.9 °F 43.0 °F 42% 30.32 in 10.0 mi South 19.6 mph - N/A   Clear
3:56 PM 66.9 °F 41.9 °F 40% 30.31 in 10.0 mi SSE 19.6 mph - N/A   Clear
4:56 PM 64.9 °F 41.9 °F 43% 30.30 in 10.0 mi SSE 17.3 mph - N/A   Clear
5:56 PM 61.9 °F 41.9 °F 48% 30.31 in 10.0 mi South 13.8 mph - N/A   Clear
6:56 PM 61.0 °F 41.9 °F 49% 30.31 in 10.0 mi SSE 11.5 mph - N/A   Clear
7:56 PM 61.0 °F 41.9 °F 49% 30.30 in 10.0 mi South 15.0 mph - N/A   Clear
8:56 PM 59.9 °F 43.9 °F 55% 30.29 in 10.0 mi SSE 18.4 mph - N/A   Clear
9:56 PM 59.0 °F 45.0 °F 60% 30.30 in 10.0 mi South 13.8 mph - N/A   Clear
11:56 PM 59.0 °F 46.9 °F 64% 30.27 in 10.0 mi South 15.0 mph - N/A   Mostly Cloudy